Weather Roundup
Issued by NWS Chicago, IL

Home | Current Version | Previous Version | Text Only | Print | Product List | Glossary Off
Versions: 1 2 3 4 5 6 7 8 9 10 11 12 13 14 15 16 17 18 19 20 21 22 23 24 25 26 27 28 29 30 31 32 33 34 35 36 37 38 39 40 41 42 43 44 45 46 47 48 49 50

000
NZUS59 KLOT 300510
HRRLOT

CHICAGO AREA WEATHER ROUNDUP
NATIONAL WEATHER SERVICE CHICAGO/ROMEOVILLE IL
1200 AM CDT TUE SEP 30 2014

NOTE: "FAIR" INDICATES FEW OR NO CLOUDS BELOW 12,000 FEET WITH NO
SIGNIFICANT WEATHER AND/OR OBSTRUCTIONS TO VISIBILITY.

* THESE STATIONS ARE NOT UNDER NWS QUALITY CONTROL. THEY ALSO MAY NOT
  REPORT WEATHER SUCH AS PRECIPITATION OR FOG.

ILZ005-006-012>014-019>023-300600-
NORTHEAST ILLINOIS

CITY           SKY/WX    TMP DP  RH WIND       PRES   REMARKS
OHARE          CLOUDY    54  51  90 NE16      30.01F
MIDWAY         LGT RAIN  58  53  84 NE15      30.00F
AURORA         CLOUDY    56  50  80 NE10      30.01R
LANSING*       CLOUDY    57  53  85 NE17      29.99F
JOLIET*        CLOUDY    57  52  85 NE9G16    30.00R
WAUKEGAN       NOT AVBL
DUPAGE AIRPORT CLOUDY    55  51  86 NE10      30.01R
WHEELING       CLOUDY    55  50  83 N10G22    30.03F
KANKAKEE*      CLOUDY    58  55  89 NE12G18   29.99S
MORRIS*        CLOUDY    58  55  89 NE9       29.98S
LEWIS AIRPORT* CLOUDY    56  51  83 NE15      30.00R
NORTHERLY IS     N/A     56  51  84 NE20        N/A
$$

WIZ051-052-058>065-066-070>072-300600-
SOUTHEAST WISCONSIN

CITY           SKY/WX    TMP DP  RH WIND       PRES   REMARKS
MILWAUKEE      CLOUDY    50  44  80 NE14G22   30.05S
KENOSHA*       CLOUDY    51  46  83 N8        30.04S
RACINE*        CLOUDY    51  45  79 N18G25    30.05S
BURLINGTON     CLOUDY    48  46  91 NE12      30.04S
WAUKESHA       CLOUDY    46  43  87 NE6       30.06S
WEST BEND      CLOUDY    46  41  81 NE8       30.06S
$$

INZ001>003-010>013-019-020-300600-
NORTHWEST INDIANA

CITY           SKY/WX    TMP DP  RH WIND       PRES   REMARKS
GARY*          CLOUDY    59  54  82 N16G22    30.01S
MICHIGAN CITY* NOT AVBL
RENSSELAER*    NOT AVBL
VALPARAISO     CLOUDY    58  53  84 N10G20    29.99R
$$

LMZ740>746-300600-
SOUTHERN LAKE MICHIGAN

STATION/POSITION TIME  SKY/WX   TEMP WIND        PRES    VSBY
                                AIR  DIR/SP/G
                 (UTC)          (F)  (DEG/KT/KT) (MB)    (MI)
HARRISON CRIB    0500            55   20/ 21/ 26   N/A
BURNHAM HARBOR   0500            56   20/ 18/ 19   N/A
CALUMET HARBOR   0500            57  360/ 13/ 16 1014.9F
BURNS HARBOR     NOT AVBL
MICHIGAN CITY    0500            57  350/ 22/ 26   N/A
$$

ABBREVIATIONS USED IN REMARKS
   TC - TEMPERATURE IN CELSIUS
  WCI - WIND CHILL INDEX
   HX - HEAT INDEX
  VSB - VISIBILITY
$$



USA.gov is the U.S. government's official web portal to all federal, state and local government web resources and services.